Regional Weather Roundup
Issued by NWS State College, PA

Home | Current Version | Previous Version | Text Only | Print | Product List | Glossary Off
Versions: 1 2 3 4 5 6 7 8 9 10 11 12 13 14 15 16 17 18 19 20 21 22 23 24 25 26 27 28 29 30 31 32 33 34 35 36 37 38 39 40 41 42 43 44 45 46 47 48 49 50

636
ASUS41 KCTP 220103
RWRCTP

REGIONAL WEATHER ROUNDUP
NATIONAL WEATHER SERVICE STATE COLLEGE PA
800 PM EST SAT JAN 21 2017

Note: "fair" indicates few or no clouds below 12,000 feet with no
significant weather and/or obstructions to visibility.

* = STATION THAT DOES NOT REPORT PRECIPITATION /E.G. RAIN...SNOW...ETC/
    THUNDER OR FOG.

PAZ002>004-007>009-013>016-020>023-029>032-220200-
WESTERN PENNSYLVANIA

CITY           SKY/WX    TMP DP  RH WIND       PRES   REMARKS
ERIE           CLOUDY    58  50  75 S6        29.69R
MEADVILLE      CLOUDY    55  49  80 VRB3      29.70S
FRANKLIN*        N/A     54  48  82 S6        29.73R
NEW CASTLE     CLOUDY    55  51  86 CALM      29.72R
BEAVER COUNTY  NOT AVBL
BUTLER*        MOCLDY    57  48  72 S5        29.76R
PITTSBURGH INT LGT RAIN  59  51  75 SW5       29.72R
PITTSBURGH     CLOUDY    58  47  66 W6        29.73R
INDIANA*       PTCLDY    52  50  93 CALM      29.74S
LATROBE        CLOUDY    54  48  82 CALM      29.74R
WASHINGTON CO* CLOUDY    54  48  82 CALM      29.74S
$$

PAZ004>006-010>012-017>019-024>028-033>037-041-042-045-046-049>053-220200-
CENTRAL PENNSYLVANIA

CITY           SKY/WX    TMP DP  RH WIND       PRES   REMARKS
BRADFORD       PTCLDY    49  48  97 SE5       29.72F
DUBOIS         PTCLDY    52  45  77 SE5       29.72S
CLEARFIELD     PTCLDY    47  46  97 NE7       29.74S
JOHNSTOWN      PTCLDY    54  46  74 S5        29.74R
ALTOONA        FOG       43  43 100 CALM      29.77R VSB 1/4
STATE COLLEGE  NOT AVBL
WILLIAMSPORT   CLOUDY    43  41  93 CALM      29.80S
SELINSGROVE    CLOUDY    42  42 100 CALM      29.81F FOG
FT INDIANTOWN  FOG       42  42 100 NE3       29.79F VSB 1/2
CAPITAL CITY   FOG       45  43  93 SE3       29.80S VSB 3/4
HARRISBURG     DRZL/FOG  44  44 100 CALM      29.80F VSB 1/4
YORK           CLOUDY    46  46 100 E3        29.78F FOG
$$

PAZ038>040-043-044-047-048-054-055-060>062-067>071-220200-
EASTERN PENNSYLVANIA

CITY           SKY/WX    TMP DP  RH WIND       PRES   REMARKS
SCRANTON       FOG       44  44 100 CALM      29.79S VSB 1/4
MOUNT POCONO   CLOUDY    38  37  97 CALM      29.77F FOG
ALLENTOWN      FOG       44  42  93 N3        29.81F VSB 1/4
QUAKERTOWN*    CLOUDY    45  45 100 CALM      29.81F VSB 1/2
READING        FOG       44  44 100 W5        29.81F VSB 1/2
LANCASTER      FOG       45  45 100 NE5       29.81F VSB 1/4
COATESVILLE    FOG       43  43 100 CALM      29.82S VSB<1/4
POTTSTOWN      FOG       44  44 100 CALM      29.82F VSB 1
BLUE BELL      CLOUDY    43  43 100 CALM      29.81S VSB 1/4
DOYLESTOWN     FOG       45  44  97 CALM      29.80F VSB 1
WILLOW GROVE   NOT AVBL
NORTH PHILA    FOG       47  46  97 CALM      29.83F VSB 3/4
PHILADELPHIA   FOG       46  45  96 CALM      29.83F VSB 1/2
$$




USA.gov is the U.S. government's official web portal to all federal, state and local government web resources and services.